N264KA EGKK-EGKB

Flight info

Callsign N264KA
Flight time 0h 6m
Altitude 2300
Route DCT EGKB
Aircraft C525/L-SDFGRWY/S

Departure

Time 2026-04-23 12:13
Airport London Gatwick Airport (EGKK)

Arrival

Time 2026-04-23 12:19
Airport London Biggin Hill Airport (EGKB)
Time Latitude Longitude Altitude Speed Heading
2026-04-23 11:59 51.15430 -0.19286 188 ft 0 kts 168°
2026-04-23 12:08 51.15429 -0.19286 188 ft 0 kts 168°
2026-04-23 12:08 51.15389 -0.19295 188 ft 12 kts 203°
2026-04-23 12:08 51.15287 -0.19364 188 ft 19 kts 169°
2026-04-23 12:09 51.15146 -0.19315 188 ft 22 kts 168°
2026-04-23 12:09 51.15039 -0.19372 188 ft 18 kts 261°
2026-04-23 12:09 51.15010 -0.19588 188 ft 22 kts 257°
2026-04-23 12:09 51.14975 -0.19841 191 ft 24 kts 258°
2026-04-23 12:10 51.14941 -0.20093 191 ft 22 kts 256°
2026-04-23 12:10 51.14907 -0.20337 193 ft 24 kts 257°
2026-04-23 12:10 51.14867 -0.20603 191 ft 21 kts 233°
2026-04-23 12:10 51.14749 -0.20718 191 ft 18 kts 201°
2026-04-23 12:11 51.14691 -0.20713 191 ft 0 kts 168°
2026-04-23 12:12 51.14686 -0.20711 191 ft 4 kts 167°
2026-04-23 12:12 51.14615 -0.20681 191 ft 15 kts 149°
2026-04-23 12:12 51.14643 -0.20269 191 ft 76 kts 77°
2026-04-23 12:12 51.14793 -0.19152 380 ft 117 kts 78°
2026-04-23 12:13 51.15242 -0.18080 1039 ft 126 kts 31°
2026-04-23 12:13 51.16176 -0.17931 1513 ft 156 kts 358°
2026-04-23 12:13 51.17313 -0.18583 1814 ft 193 kts 339°
2026-04-23 12:13 51.18634 -0.19569 1824 ft 215 kts 340°
2026-04-23 12:14 51.20090 -0.20626 1803 ft 233 kts 340°
2026-04-23 12:14 51.21613 -0.21720 1803 ft 240 kts 340°
2026-04-23 12:14 51.23185 -0.22763 1786 ft 238 kts 349°
2026-04-23 12:14 51.24870 -0.22459 1792 ft 225 kts 30°
2026-04-23 12:15 51.25968 -0.20622 1793 ft 218 kts 65°
2026-04-23 12:15 51.26398 -0.18133 1797 ft 213 kts 79°
2026-04-23 12:15 51.26644 -0.15671 1784 ft 205 kts 81°
2026-04-23 12:15 51.26832 -0.13345 1789 ft 197 kts 82°
2026-04-23 12:16 51.27009 -0.11026 1783 ft 190 kts 83°
2026-04-23 12:16 51.27182 -0.08755 1787 ft 185 kts 81°
2026-04-23 12:16 51.27345 -0.06641 1788 ft 181 kts 83°
2026-04-23 12:16 51.27493 -0.04568 1798 ft 177 kts 84°
2026-04-23 12:17 51.27655 -0.02498 1813 ft 173 kts 73°
2026-04-23 12:17 51.28331 -0.00724 1727 ft 174 kts 51°
2026-04-23 12:17 51.29386 0.00460 1554 ft 167 kts 26°
2026-04-23 12:17 51.30444 0.01192 1289 ft 145 kts 31°
2026-04-23 12:18 51.31309 0.01887 954 ft 124 kts 28°
2026-04-23 12:18 51.32033 0.02438 757 ft 110 kts 31°
2026-04-23 12:18 51.32695 0.02938 578 ft 99 kts 25°
2026-04-23 12:18 51.33188 0.03321 553 ft 51 kts 28°
2026-04-23 12:19 51.33374 0.03379 545 ft 19 kts 291°
2026-04-23 12:19 51.33374 0.03213 548 ft 11 kts 248°
2026-04-23 12:19 51.33325 0.03153 551 ft 8 kts 205°
2026-04-23 12:19 51.33257 0.03101 553 ft 13 kts 204°
2026-04-23 12:20 51.33228 0.02954 555 ft 15 kts 213°
2026-04-23 12:20 51.33199 0.02940 557 ft 0 kts 194°